Location: Newark
(7.0858°N, 171.3717°E)
Time: 05:06:31
(UTC+00:00)

Vanguard 2 - Pass Details

Date: 30 November 2020
Orbit: 553 x 2937 km, 32.9° (Epoch: 26 January)

Event Time Altitude Azimuth Distance (km) Brightness Sun altitude
Rises 07:05:51 0° 277° (W) 3,601 12.2 -12.5°
Reaches altitude 10° 07:08:23 10° 265° (W) 2,914 11.8 -13.1°
Maximum altitude 07:14:40 30° 206° (SSW) 2,369 10.5 -14.5°
Drops below altitude 10° 07:24:12 10° 151° (SSE) 4,493 11.3 -16.7°
Sets 07:29:19 0° 141° (SE) 5,911 11.9 -17.9°
